| time (UTC) | temp F | wind direction | speed knots | gust knots | rain 1hr in | rain 24hr in | rain mn in | humidity % | barometer mb |
| 20260904092515 | 72 | 0.0 | 0.0 | 0.00 | 0.04 | 0.01 | 98 | 1018.4 | |
| 20260904091515 | 72 | 0.0 | 0.0 | 0.00 | 0.04 | 0.01 | 98 | 1018.3 | |
| 20260904090515 | 72 | 0.0 | 0.0 | 0.00 | 0.04 | 0.01 | 98 | 1018.1 | |
| 20260904085515 | 72 | 0.0 | 0.0 | 0.00 | 0.04 | 0.01 | 98 | 1017.9 | |
| 20260904084636 | 72 | 0.0 | 0.0 | 0.00 | 0.05 | 0.01 | 98 | 1017.9 | |
| 20260904083517 | 72 | 0.0 | 0.0 | 0.00 | 0.05 | 0.01 | 98 | 1017.8 | |
| 20260904082517 | 72 | 0.0 | 0.0 | 0.00 | 0.05 | 0.01 | 98 | 1017.7 | |
| 20260904081617 | 72 | 0.0 | 0.0 | 0.00 | 0.05 | 0.01 | 98 | 1017.7 | |
| 20260904075517 | 73 | 0.0 | 0.0 | 0.00 | 0.05 | 0.01 | 98 | 1017.8 | |
| 20260904074557 | 73 | 0.0 | 0.0 | 0.00 | 0.05 | 0.01 | 98 | 1017.9 | |
| 20260904073659 | 73 | 0.0 | 0.0 | 0.00 | 0.05 | 0.01 | 98 | 1017.8 | |
| 20260904072517 | 73 | 0.0 | 0.0 | 0.01 | 0.05 | 0.01 | 98 | 1017.9 | |
| 20260904071659 | 73 | 0.0 | 0.0 | 0.01 | 0.05 | 0.01 | 98 | 1018.1 | |
| 20260904070617 | 73 | 0.0 | 0.0 | 0.01 | 0.05 | 0.01 | 97 | 1018.1 | |
| 20260904065517 | 73 | 0.0 | 0.0 | 0.01 | 0.05 | 0.01 | 97 | 1018.3 | |
| 20260904064537 | 73 | 0.0 | 0.0 | 0.01 | 0.05 | 0.01 | 97 | 1018.4 | |
| 20260904063517 | 73 | 0.0 | 0.0 | 0.01 | 0.05 | 0.01 | 97 | 1018.6 | |
| 20260904062557 | 73 | 0.0 | 0.0 | 0.00 | 0.04 | 0.00 | 97 | 1018.7 | |
| 20260904061557 | 73 | 0.0 | 0.0 | 0.00 | 0.04 | 0.00 | 97 | 1018.7 | |
| 20260904060537 | 73 | 0.0 | 0.0 | 0.00 | 0.04 | 0.00 | 97 | 1018.9 | |
| 20260904055517 | 73 | 0.0 | 0.0 | 0.00 | 0.04 | 0.00 | 97 | 1018.9 | |
| 20260904054517 | 73 | 0.0 | 0.0 | 0.00 | 0.04 | 0.00 | 97 | 1019.1 | |
| 20260904053517 | 73 | 0.0 | 0.0 | 0.00 | 0.04 | 0.00 | 97 | 1019.1 | |
| 20260904052517 | 74 | 0.0 | 0.0 | 0.00 | 0.04 | 0.00 | 96 | 1019.2 | |
| 20260904051517 | 74 | 0.0 | 0.0 | 0.00 | 0.04 | 0.00 | 96 | 1019.3 | |
| 20260904050517 | 74 | 0.0 | 0.0 | 0.00 | 0.04 | 0.00 | 96 | 1019.4 | |
| 20260904045517 | 74 | 0.0 | 0.0 | 0.00 | 0.05 | 0.00 | 96 | 1019.4 | |
| 20260904044537 | 74 | 0.0 | 0.0 | 0.00 | 0.05 | 0.00 | 96 | 1019.4 | |
| 20260904043517 | 74 | 0.0 | 0.0 | 0.00 | 0.05 | 0.00 | 96 | 1019.4 | |
| 20260904042617 | 74 | 0.0 | 0.0 | 0.00 | 0.05 | 0.00 | 96 | 1019.2 | |
| 20260904041517 | 74 | 0.0 | 0.0 | 0.00 | 0.05 | 0.00 | 95 | 1019.1 | |
| 20260904040537 | 75 | 0.0 | 0.0 | 0.00 | 0.05 | 0.00 | 95 | 1018.9 | |
| 20260904035656 | 75 | 0.0 | 0.0 | 0.00 | 0.05 | 0.05 | 95 | 1018.9 | |
| 20260904034517 | 75 | 0.0 | 0.0 | 0.00 | 0.05 | 0.05 | 94 | 1018.9 | |
| 20260904033537 | 75 | 0.0 | 0.0 | 0.00 | 0.05 | 0.05 | 94 | 1019.1 | |
| 20260904032537 | 75 | 0.0 | 0.0 | 0.00 | 0.05 | 0.05 | 94 | 1019.1 | |
| 20260904031537 | 75 | 0.0 | 0.0 | 0.00 | 0.05 | 0.05 | 94 | 1019.1 | |
| 20260904030537 | 76 | 0.0 | 0.0 | 0.00 | 0.05 | 0.05 | 94 | 1019.1 | |
| 20260904025557 | 76 | 0.0 | 0.0 | 0.00 | 0.05 | 0.05 | 93 | 1019.0 | |
| 20260904024517 | 76 | 0.0 | 0.0 | 0.00 | 0.06 | 0.05 | 93 | 1019.0 | |
| 20260904023517 | 76 | 0.0 | 0.0 | 0.00 | 0.06 | 0.05 | 92 | 1019.0 | |
| 20260904022617 | 76 | 0.0 | 0.0 | 0.00 | 0.06 | 0.05 | 92 | 1019.0 | |
| 20260904021517 | 77 | 0.0 | 0.0 | 0.00 | 0.06 | 0.05 | 91 | 1019.0 | |
| 20260904020517 | 77 | 0.0 | 0.0 | 0.00 | 0.06 | 0.05 | 91 | 1019.2 | |
| 20260904015517 | 77 | 0.0 | 0.0 | 0.00 | 0.06 | 0.05 | 91 | 1018.9 | |
| 20260904014537 | 78 | 0.0 | 0.0 | 0.00 | 0.06 | 0.05 | 89 | 1018.8 | |
| 20260904013557 | 78 | 0.0 | 0.0 | 0.00 | 0.06 | 0.05 | 89 | 1018.7 | |
| 20260904012517 | 78 | 0.0 | 0.0 | 0.00 | 0.06 | 0.05 | 88 | 1018.6 | |
| 20260904011557 | 79 | 0.0 | 0.0 | 0.00 | 0.06 | 0.05 | 87 | 1018.4 | |
| 20260904010517 | 79 | 0.0 | 0.0 | 0.00 | 0.06 | 0.05 | 87 | 1018.3 | |
| 20260904005517 | 80 | 0.0 | 0.0 | 0.00 | 0.07 | 0.05 | 86 | 1018.0 | |
| 20260904004537 | 81 | 0.0 | 0.0 | 0.00 | 0.07 | 0.05 | 84 | 1018.0 | |
| 20260904003517 | 81 | 0.0 | 0.0 | 0.00 | 0.08 | 0.05 | 83 | 1017.7 | |
| 20260904002517 | 82 | 0.0 | 0.0 | 0.00 | 0.08 | 0.05 | 82 | 1017.6 | |
| 20260904001517 | 83 | 0.0 | 0.0 | 0.00 | 0.08 | 0.05 | 81 | 1017.6 | |
| 20260904000617 | 84 | 0.0 | 0.0 | 0.00 | 0.09 | 0.05 | 78 | 1017.6 | |
| 20260903235517 | 85 | 0.0 | 0.0 | 0.00 | 0.09 | 0.05 | 76 | 1017.3 | |
| 20260903234517 | 86 | 0.0 | 0.0 | 0.00 | 0.09 | 0.05 | 75 | 1017.5 | |
| 20260903233537 | 87 | 0.0 | 0.0 | 0.00 | 0.09 | 0.05 | 72 | 1017.2 | |
| 20260903231517 | 90 | 0.0 | 0.9 | 0.00 | 0.11 | 0.05 | 65 | 1017.2 | |
| 20260903230537 | 92 | 0.0 | 0.0 | 0.00 | 0.12 | 0.05 | 65 | 1017.3 | |
| 20260903225537 | 94 | 0.0 | 1.7 | 0.00 | 0.12 | 0.05 | 61 | 1017.4 | |
| 20260903224537 | 96 | 0.0 | 0.9 | 0.00 | 0.13 | 0.05 | 57 | 1017.4 | |
| 20260903223537 | 96 | 0.0 | 0.0 | 0.00 | 0.13 | 0.05 | 56 | 1017.3 | |
| 20260903222516 | 96 | 0.0 | 2.6 | 0.00 | 0.13 | 0.05 | 55 | 1017.4 | |
| 20260903221557 | 96 | 0.0 | 1.7 | 0.00 | 0.13 | 0.05 | 56 | 1017.5 | |
| 20260903220517 | 96 | 0.0 | 1.7 | 0.00 | 0.13 | 0.05 | 56 | 1017.5 | |
| 20260903215516 | 98 | 0.0 | 2.6 | 0.00 | 0.13 | 0.05 | 52 | 1017.6 | |
| 20260903214516 | 98 | 0.0 | 1.7 | 0.00 | 0.13 | 0.05 | 51 | 1017.7 | |
| 20260903213537 | 99 | 0.0 | 0.9 | 0.01 | 0.13 | 0.05 | 54 | 1017.7 | |
| 20260903212637 | 98 | 315 | 0.9 | 3.5 | 0.01 | 0.13 | 0.05 | 51 | 1017.7 |
| 20260903211617 | 98 | 113 | 0.9 | 2.6 | 0.01 | 0.13 | 0.05 | 51 | 1017.8 |
| 20260903210516 | 99 | 315 | 0.9 | 2.6 | 0.01 | 0.13 | 0.05 | 50 | 1017.8 |
| 20260903205536 | 99 | 0.0 | 2.6 | 0.01 | 0.13 | 0.05 | 51 | 1017.9 | |
| 20260903204516 | 99 | 293 | 0.9 | 2.6 | 0.02 | 0.13 | 0.05 | 51 | 1017.9 |
| 20260903203516 | 98 | 90 | 0.9 | 1.7 | 0.01 | 0.12 | 0.04 | 52 | 1017.9 |
| 20260903202516 | 98 | 90 | 0.9 | 3.5 | 0.01 | 0.12 | 0.04 | 51 | 1018.0 |
| 20260903201516 | 98 | 113 | 0.9 | 1.7 | 0.01 | 0.12 | 0.04 | 53 | 1018.1 |
| 20260903200616 | 98 | 315 | 1.7 | 5.2 | 0.01 | 0.12 | 0.04 | 54 | 1018.2 |
| 20260903195536 | 98 | 293 | 0.9 | 2.6 | 0.01 | 0.12 | 0.04 | 55 | 1018.2 |
| 20260903194516 | 97 | 315 | 0.9 | 2.6 | 0.00 | 0.11 | 0.03 | 56 | 1018.5 |
| 20260903193616 | 97 | 45 | 0.9 | 2.6 | 0.00 | 0.11 | 0.03 | 55 | 1018.6 |
| 20260903192536 | 96 | 90 | 0.9 | 5.2 | 0.00 | 0.12 | 0.03 | 58 | 1018.6 |
| 20260903191516 | 96 | 270 | 0.9 | 4.3 | 0.00 | 0.12 | 0.03 | 60 | 1018.6 |
| 20260903190516 | 95 | 0.0 | 1.7 | 0.00 | 0.12 | 0.03 | 60 | 1018.6 | |
| 20260903185536 | 95 | 90 | 0.9 | 4.3 | 0.00 | 0.12 | 0.03 | 60 | 1018.8 |
| 20260903184516 | 94 | 0.0 | 0.9 | 0.00 | 0.13 | 0.03 | 55 | 1018.8 | |
| 20260903183556 | 95 | 23 | 0.9 | 4.3 | 0.00 | 0.13 | 0.03 | 56 | 1018.9 |
| 20260903182616 | 96 | 315 | 0.9 | 4.3 | 0.00 | 0.13 | 0.03 | 54 | 1019.1 |
| 20260903181516 | 96 | 315 | 0.9 | 3.5 | 0.00 | 0.13 | 0.03 | 56 | 1019.2 |
| 20260903180516 | 96 | 293 | 0.9 | 2.6 | 0.00 | 0.13 | 0.03 | 57 | 1019.3 |
| 20260903175516 | 95 | 23 | 0.9 | 3.5 | 0.00 | 0.13 | 0.03 | 58 | 1019.4 |
| 20260903174536 | 95 | 293 | 0.9 | 2.6 | 0.00 | 0.13 | 0.03 | 58 | 1019.5 |
| 20260903173536 | 95 | 315 | 0.9 | 1.7 | 0.00 | 0.13 | 0.03 | 57 | 1019.6 |
| 20260903172536 | 95 | 293 | 0.9 | 3.5 | 0.00 | 0.13 | 0.03 | 58 | 1019.6 |
| 20260903171536 | 94 | 45 | 0.9 | 4.3 | 0.00 | 0.13 | 0.03 | 59 | 1019.7 |
| 20260903170516 | 94 | 0.0 | 0.9 | 0.00 | 0.13 | 0.03 | 64 | 1019.9 | |
| 20260903165536 | 93 | 45 | 0.9 | 3.5 | 0.00 | 0.13 | 0.03 | 60 | 1020.0 |
| 20260903164556 | 93 | 23 | 0.9 | 2.6 | 0.00 | 0.13 | 0.03 | 60 | 1020.0 |
| 20260903163516 | 93 | 0.0 | 1.7 | 0.00 | 0.13 | 0.03 | 61 | 1020.1 | |
| 20260903162536 | 92 | 45 | 0.9 | 4.3 | 0.00 | 0.13 | 0.03 | 59 | 1020.2 |
| 20260903161516 | 92 | 0.0 | 1.7 | 0.00 | 0.13 | 0.03 | 59 | 1020.2 | |
| 20260903160536 | 92 | 45 | 0.9 | 5.2 | 0.00 | 0.13 | 0.03 | 60 | 1020.4 |
| 20260903155536 | 91 | 45 | 0.9 | 3.5 | 0.00 | 0.13 | 0.03 | 65 | 1020.3 |
| 20260903154516 | 91 | 0.0 | 2.6 | 0.00 | 0.13 | 0.03 | 63 | 1020.4 | |
| 20260903153516 | 90 | 23 | 0.9 | 4.3 | 0.00 | 0.14 | 0.03 | 67 | 1020.5 |
| 20260903152516 | 90 | 0.0 | 0.9 | 0.00 | 0.14 | 0.03 | 71 | 1020.6 | |
| 20260903151536 | 90 | 0.0 | 2.6 | 0.00 | 0.14 | 0.03 | 69 | 1020.5 | |
| 20260903150637 | 89 | 0.0 | 2.6 | 0.00 | 0.14 | 0.03 | 68 | 1020.5 | |
| 20260903145536 | 88 | 0.0 | 0.9 | 0.00 | 0.14 | 0.03 | 72 | 1020.5 | |
| 20260903144616 | 88 | 0.0 | 0.9 | 0.00 | 0.14 | 0.03 | 76 | 1020.5 | |
| 20260903143516 | 87 | 0.0 | 0.9 | 0.00 | 0.14 | 0.03 | 76 | 1020.5 | |
| 20260903142616 | 86 | 0.0 | 0.9 | 0.00 | 0.14 | 0.03 | 78 | 1020.5 | |
| 20260903141516 | 85 | 0.0 | 0.9 | 0.00 | 0.14 | 0.03 | 82 | 1020.5 | |
| 20260903140516 | 84 | 0.0 | 0.9 | 0.01 | 0.14 | 0.03 | 84 | 1020.5 | |
| 20260903135536 | 82 | 0.0 | 0.9 | 0.01 | 0.14 | 0.03 | 89 | 1020.4 | |
| 20260903134556 | 81 | 0.0 | 0.9 | 0.01 | 0.14 | 0.03 | 91 | 1020.2 | |
| 20260903133536 | 78 | 0.0 | 0.9 | 0.01 | 0.14 | 0.03 | 97 | 1020.1 | |
| 20260903132516 | 77 | 0.0 | 0.0 | 0.01 | 0.14 | 0.03 | 100 | 1020.2 | |
| 20260903131515 | 76 | 0.0 | 0.0 | 0.01 | 0.14 | 0.03 | 100 | 1020.3 | |
| 20260903130515 | 75 | 0.0 | 0.0 | 0.00 | 0.14 | 0.02 | 100 | 1020.3 | |
| 20260903125536 | 74 | 0.0 | 0.0 | 0.00 | 0.14 | 0.02 | 100 | 1020.2 | |
| 20260903124616 | 74 | 0.0 | 0.0 | 0.00 | 0.14 | 0.02 | 100 | 1020.2 | |
| 20260903123636 | 73 | 0.0 | 0.0 | 0.00 | 0.14 | 0.02 | 100 | 1020.1 | |
| 20260903122515 | 72 | 0.0 | 0.0 | 0.00 | 0.14 | 0.02 | 99 | 1020.1 | |
| 20260903121515 | 72 | 0.0 | 0.0 | 0.00 | 0.14 | 0.02 | 99 | 1020.2 | |
| 20260903120515 | 71 | 0.0 | 0.0 | 0.00 | 0.14 | 0.02 | 99 | 1020.2 | |
| 20260903115515 | 71 | 0.0 | 0.0 | 0.00 | 0.14 | 0.02 | 99 | 1020.2 | |
| 20260903114515 | 70 | 0.0 | 0.0 | 0.00 | 0.14 | 0.02 | 99 | 1020.0 | |
| 20260903113515 | 70 | 0.0 | 0.0 | 0.00 | 0.14 | 0.02 | 99 | 1019.8 | |
| 20260903112515 | 70 | 0.0 | 0.0 | 0.00 | 0.14 | 0.02 | 99 | 1019.9 | |
| 20260903111616 | 70 | 0.0 | 0.0 | 0.00 | 0.14 | 0.02 | 99 | 1019.8 | |
| 20260903110535 | 70 | 0.0 | 0.0 | 0.00 | 0.14 | 0.02 | 99 | 1019.8 | |
| 20260903104535 | 70 | 0.0 | 0.0 | 0.00 | 0.14 | 0.02 | 99 | 1019.8 | |
| 20260903103535 | 70 | 0.0 | 0.0 | 0.00 | 0.14 | 0.02 | 98 | 1019.8 | |
| 20260903102535 | 70 | 0.0 | 0.0 | 0.00 | 0.14 | 0.02 | 98 | 1019.7 | |
| 20260903101615 | 70 | 0.0 | 0.0 | 0.00 | 0.14 | 0.02 | 99 | 1019.6 | |
| 20260903100515 | 70 | 0.0 | 0.0 | 0.00 | 0.14 | 0.02 | 99 | 1019.6 | |
| 20260903095535 | 70 | 0.0 | 0.0 | 0.00 | 0.14 | 0.02 | 98 | 1019.5 | |
| 20260903094515 | 70 | 0.0 | 0.0 | 0.01 | 0.14 | 0.02 | 98 | 1019.6 | |
| 20260903093535 | 70 | 0.0 | 0.0 | 0.01 | 0.14 | 0.02 | 98 | 1019.6 |